{"data":{"norad_id":59038,"epoch":"2026-05-25T03:46:50.945376Z","epoch_age_seconds":65436,"freshness":"FRESH","line1":"1 59038U 24038R   26145.15753409  .00001131  00000+0  50599-4 0  9991","line2":"2 59038  43.0008 311.6586 0001035 269.2900  90.7833 15.27578304126493","mean_motion":15.27578304,"eccentricity":0.0001035,"inclination_deg":43.0008,"raan_deg":311.6586,"arg_perigee_deg":269.29,"mean_anomaly_deg":90.7833,"bstar":5.0599e-5,"rev_number":12649,"period_min":94.266853373691,"perigee_km":482.34404119193,"apogee_km":483.76430776504,"semimajor_km":6861.1911744785,"source":"CELESTRAK","updated_at":"2026-05-25T13:38:18.825468Z"}}